ARIANE 44LP R/B, 19689

Orbit data source: Space-Track

ARIANE 44LP R/B, 19689 is space debris in HEO originally from a launch on Sun, 11 Dec 1988 UTC launched from the French Guiana (FRGUI). Debris objects in space refer to the collection of defunct objects orbiting the Earth. Examples of debris include non-operational satellites, rocket bodies, and fragments generated from explosions, collisions, or faulty payload assembly.

Loading next visibility...
Identifier
19689, 1988-109C
Orbit
HEO
Country
Flag of FRFR
Related business
Manufacturer
Ae/LesM
Mission
Spacecraft
Bus & Motor
ARIANE H10, Unknown motor
Mass
2,260 kg wet, 2,080 kg dry
Launch date (UTC)
1988-12-11 (38 years ago)
Launch vehicle
Unknown
Launch site
French Guiana (FRGUI)
Object type
Payload
Rocket body
Debris
Shape & HBR
Cyl, 7.2 m
Radar Cross Section
31.447 m², Large (>1 m²)

Expand to show TLE details & history
Last TLE update: 12 hours ago

TLE from 12 hours ago
0 ARIANE 44LP R/B
1 19689U 88109C   26257.10782453  .00000067  00000-0  73473-3 0  9991
2 19689   6.5033 214.5456 7179243  95.7848 342.4128  2.30277624280178
Epoch: 2026-09-14T02:35Z
TLE epoch observation values (Epoch: 2026-09-14T02:35:16.039Z)
Latitude
Longitude
-177.77015°
Altitude
6,349.932 km
Speed
6.795 km/s
True Right ascension
14h 16m 33s
True Declination
0° 00' 00"
Sunlit
Object was in daylight at epoch
Visualization orbit readout
Latitude
Unknown
Longitude
Unknown
Altitude
Unknown
Speed
Unknown
Apparent Right ascension
Unknown
Apparent Declination
Unknown
Sunlit
N/A
Visualization observer readout
Local Sidereal Time
07:34:34
Azimuth
Unknown
Elevation
Unknown
Doppler factor
Unknown
Orbital elements
Apogee altitude
35,244.835 km
Perigee altitude
456.174 km
Semi-major axis
24,228.641 km
Eccentricity
0.71792
Inclination
6.5033°
RAAN
214.5456°
Arg. of periapsis
95.7848°
True anomaly
264.21239°
Mean anomaly
342.4128°
Eccentric anomaly
311.70107°
Mean motion
0.57551 °/min
Orbital period
625.54 mins
BSTAR
0.00073473
Loading maneuver chart data...
Computing Atmospheric mass density...
Loading historical data...
Loading historical data...
Loading historical data...
Loading historical data...
Loading historical data...
Loading historical data...
Loading historical data...

Documentation

Showing up to 5 results
|